KC0AFB Weather Reports


time (UTC)temp
C
wind
direction
speed
KPH
gust
KPH
rain 1hr
cm
rain 24hr
cm
rain mn
cm
humidity
%
barometer
mb
20260507115036 -1 75 1.6 1.6 0.00 0.00 0.00 71 1011.5
20260507114532 -1 72 1.6 1.6 0.00 0.00 0.00 72 1011.5
20260507114030 -1 73 3.2 3.2 0.00 0.00 0.00 72 1011.5
20260507113527 -1 73 1.6 3.2 0.00 0.00 0.00 73 1011.5
20260507113024 -1 71 1.6 1.6 0.00 0.00 0.00 72 1011.5
20260507112521 -1 69 1.6 3.2 0.00 0.00 0.00 72 1011.4
20260507112018 -1 70 1.6 3.2 0.00 0.00 0.00 72 1011.5
20260507111515 -1 68 3.2 3.2 0.00 0.00 0.00 72 1011.5
20260507111011 -1 75 1.6 3.2 0.00 0.00 0.00 72 1011.5
20260507110508 -1 62 1.6 3.2 0.00 0.00 0.00 72 1011.6
20260507110005 -1 72 1.6 1.6 0.00 0.00 0.00 73 1011.5
20260507105501 -1 75 1.6 1.6 0.00 0.00 0.00 73 1011.7
20260507104958 -1 68 1.6 1.6 0.00 0.00 0.00 73 1011.5
20260507104455 -1 81 0.0 1.6 0.00 0.00 0.00 73 1011.6
20260507103950 -2 82 0.0 1.6 0.00 0.00 0.00 73 1011.7
20260507103447 -2 75 1.6 1.6 0.00 0.00 0.00 74 1011.7
20260507102944 -2 85 0.0 1.6 0.00 0.00 0.00 74 1011.7
20260507102441 -2 86 1.6 1.6 0.00 0.00 0.00 73 1011.8
20260507101937 -2 63 1.6 1.6 0.00 0.00 0.00 73 1011.8
20260507101432 -2 67 1.6 3.2 0.00 0.00 0.00 72 1011.7
20260507100929 -1 63 1.6 1.6 0.00 0.00 0.00 72 1011.7
20260507100426 -1 69 3.2 3.2 0.00 0.00 0.00 71 1011.9
20260507095925 -1 87 0.0 0.0 0.00 0.00 0.00 71 1012.0
20260507095421 -1 58 1.6 3.2 0.00 0.00 0.00 70 1011.9
20260507094919 -1 71 3.2 3.2 0.00 0.00 0.00 69 1011.8
20260507094415 -1 59 4.8 4.8 0.00 0.00 0.00 69 1011.8
20260507093912 -1 58 4.8 4.8 0.00 0.00 0.00 69 1011.8
20260507093410 -1 65 4.8 4.8 0.00 0.00 0.00 69 1011.8
20260507092908 -1 56 3.2 3.2 0.00 0.00 0.00 69 1011.9
20260507092404 -1 58 4.8 4.8 0.00 0.00 0.00 69 1011.7
20260507091901 -1 58 4.8 4.8 0.00 0.00 0.00 69 1012.0
20260507091357 -1 57 4.8 4.8 0.00 0.00 0.00 69 1011.9
20260507090852 -1 79 3.2 3.2 0.00 0.00 0.00 68 1011.9
20260507090349 0 64 3.2 3.2 0.00 0.00 0.00 67 1012.2
20260507085846 0 56 4.8 4.8 0.00 0.00 0.00 66 1011.7
20260507085343 0 56 3.2 3.2 0.00 0.00 0.00 67 1012.0
20260507084840 0 54 1.6 3.2 0.00 0.00 0.00 67 1011.8
20260507084336 0 59 3.2 3.2 0.00 0.00 0.00 68 1011.8
20260507083834 0 59 1.6 1.6 0.00 0.00 0.00 66 1011.7
20260507083330 0 64 3.2 3.2 0.00 0.00 0.00 66 1011.8
20260507082826 0 55 3.2 3.2 0.00 0.00 0.00 66 1011.7
20260507082322 0 61 3.2 3.2 0.00 0.00 0.00 66 1011.6
20260507081820 0 57 3.2 3.2 0.00 0.00 0.00 66 1011.8
20260507081315 0 59 3.2 3.2 0.00 0.00 0.00 67 1011.7
20260507080812 0 56 0.0 0.0 0.00 0.00 0.00 68 1011.8
20260507080309 -1 73 0.0 0.0 0.00 0.00 0.00 70 1011.6
20260507075804 -2 53 0.0 0.0 0.00 0.00 0.00 72 1011.5
20260507075300 -2 82 0.0 0.0 0.00 0.00 0.00 71 1011.8
20260507074757 -1 82 0.0 0.0 0.00 0.00 0.00 69 1011.7
20260507074255 -1 72 0.0 0.0 0.00 0.00 0.00 69 1011.8
20260507073751 -1 71 0.0 0.0 0.00 0.00 0.00 69 1011.7
20260507073248 -1 71 0.0 0.0 0.00 0.00 0.00 70 1011.8
20260507072746 -2 73 0.0 0.0 0.00 0.00 0.00 70 1011.7
20260507072243 -1 73 0.0 0.0 0.00 0.00 0.00 68 1011.7
20260507071740 0 73 0.0 0.0 0.00 0.00 0.00 67 1011.6
20260507071236 0 73 0.0 0.0 0.00 0.00 0.00 65 1011.7
20260507070734 0 67 0.0 0.0 0.00 0.00 0.00 65 1011.8
20260507070230 0 52 0.0 0.0 0.00 0.00 0.00 65 1011.7
20260507065727 0 100 0.0 0.0 0.00 0.00 0.00 65 1011.7
20260507065223 0 158 0.0 0.0 0.00 0.00 0.00 64 1011.9
20260507064721 0 139 1.6 1.6 0.00 0.00 0.00 64 1012.0
20260507064215 1 107 3.2 3.2 0.00 0.00 0.00 62 1011.7
20260507063711 1 88 3.2 3.2 0.00 0.00 0.00 62 1011.8
20260507063208 1 90 3.2 3.2 0.00 0.00 0.00 63 1012.2
20260507062705 1 93 1.6 3.2 0.00 0.00 0.00 62 1011.9
20260507062203 1 127 4.8 4.8 0.00 0.00 0.00 62 1011.9
20260507061700 1 107 3.2 3.2 0.00 0.00 0.00 62 1011.8
20260507061158 1 100 3.2 3.2 0.00 0.00 0.00 63 1011.9
20260507060656 0 96 1.6 3.2 0.00 0.00 0.00 63 1012.0
20260507060152 1 86 1.6 1.6 0.00 0.00 0.00 62 1012.1
20260507055648 1 87 4.8 4.8 0.00 0.00 0.00 62 1011.7
20260507055144 1 89 3.2 3.2 0.00 0.00 0.00 61 1011.9
20260507054640 1 94 4.8 4.8 0.00 0.00 0.00 61 1012.0
20260507054137 1 73 4.8 4.8 0.00 0.00 0.00 61 1012.0
20260507053635 1 103 4.8 4.8 0.00 0.00 0.00 61 1012.0
20260507053133 1 101 4.8 4.8 0.00 0.00 0.00 61 1012.0
20260507052631 1 101 4.8 4.8 0.00 0.00 0.00 60 1012.1
20260507052127 1 99 4.8 4.8 0.00 0.00 0.00 60 1012.0
20260507051624 2 105 4.8 4.8 0.00 0.00 0.00 59 1012.0
20260507051121 2 110 4.8 4.8 0.00 0.00 0.00 58 1011.9
20260507050618 2 116 6.4 8.0 0.00 0.00 0.00 58 1012.1
20260507050115 2 110 4.8 4.8 0.00 0.00 0.00 58 1012.0
20260507045612 2 95 4.8 4.8 0.00 0.00 0.00 58 1012.1
20260507045108 2 87 4.8 4.8 0.00 0.00 0.00 58 1012.2
20260507044605 2 101 6.4 9.7 0.00 0.00 0.00 57 1012.4
20260507044102 2 95 6.4 8.0 0.00 0.00 0.00 56 1012.3
20260507043557 2 140 8.0 8.0 0.00 0.00 0.00 55 1012.4
20260507043055 3 77 4.8 8.0 0.00 0.00 0.00 54 1012.2
20260507042551 3 76 6.4 8.0 0.00 0.00 0.00 54 1012.4
20260507042047 3 74 6.4 8.0 0.00 0.00 0.00 54 1012.3
20260507041544 3 82 3.2 4.8 0.00 0.00 0.00 55 1012.3
20260507041041 3 83 4.8 4.8 0.00 0.00 0.00 54 1012.3
20260507040537 3 64 4.8 4.8 0.00 0.00 0.00 54 1012.5
20260507040033 3 75 4.8 4.8 0.00 0.00 0.00 51 1012.4
20260507035530 3 70 4.8 4.8 0.00 0.00 0.00 51 1012.6
20260507035026 3 71 4.8 4.8 0.00 0.00 0.00 51 1012.4
20260507034523 4 73 4.8 8.0 0.00 0.00 0.00 50 1012.6
20260507034021 4 62 6.4 8.0 0.00 0.00 0.00 50 1012.6
20260507033519 4 62 4.8 4.8 0.00 0.00 0.00 50 1012.9
20260507033016 4 69 4.8 4.8 0.00 0.00 0.00 50 1012.5
20260507032512 4 65 3.2 4.8 0.00 0.00 0.00 50 1012.9
20260507032009 4 71 4.8 4.8 0.00 0.00 0.00 50 1012.6
20260507031505 5 56 4.8 4.8 0.00 0.00 0.00 49 1012.6
20260507031003 5 64 4.8 8.0 0.00 0.00 0.00 49 1012.5
20260507030459 5 72 4.8 4.8 0.00 0.00 0.00 49 1012.6
20260507025956 5 60 4.8 4.8 0.00 0.00 0.00 49 1012.7
20260507025453 5 58 4.8 4.8 0.00 0.00 0.00 48 1012.9
20260507024951 5 57 4.8 4.8 0.00 0.00 0.00 48 1012.9
20260507024448 5 54 3.2 3.2 0.00 0.00 0.00 47 1012.7
20260507023944 5 49 4.8 8.0 0.00 0.00 0.00 47 1012.7
20260507023441 6 59 3.2 3.2 0.00 0.00 0.00 47 1012.6
20260507022938 6 58 3.2 3.2 0.00 0.00 0.00 46 1012.5
20260507022436 6 56 4.8 4.8 0.00 0.00 0.00 46 1012.9
20260507021931 6 49 4.8 4.8 0.00 0.00 0.00 45 1012.6
20260507021426 6 56 3.2 3.2 0.00 0.00 0.00 45 1012.6
20260507020924 6 59 3.2 3.2 0.00 0.00 0.00 44 1012.9
20260507020421 7 52 3.2 3.2 0.00 0.00 0.00 43 1012.7
20260507015918 7 51 1.6 3.2 0.00 0.00 0.00 44 1012.9
20260507015416 7 44 1.6 3.2 0.00 0.00 0.00 43 1012.5
20260507014913 7 52 1.6 1.6 0.00 0.00 0.00 43 1012.7
20260507014409 7 46 1.6 1.6 0.00 0.00 0.00 43 1012.5
20260507013905 7 48 3.2 4.8 0.00 0.00 0.00 42 1012.6
20260507013402 8 11 3.2 3.2 0.00 0.00 0.00 42 1012.5
20260507012859 8 25 0.0 0.0 0.00 0.00 0.00 42 1012.7
20260507012355 8 16 4.8 4.8 0.00 0.00 0.00 42 1012.6
20260507011847 8 341 6.4 8.0 0.00 0.00 0.00 41 1012.6
20260507011344 8 348 6.4 8.0 0.00 0.00 0.00 41 1012.7
20260507010838 9 34 1.6 3.2 0.00 0.00 0.00 40 1012.5
20260507010334 9 2 9.7 11.3 0.00 0.00 0.00 39 1012.9
20260507005831 9 7 8.0 9.7 0.00 0.00 0.00 38 1012.6
20260507005328 10 353 6.4 8.0 0.00 0.00 0.00 38 1012.7
20260507004824 10 335 8.0 11.3 0.00 0.00 0.00 38 1012.9
20260507004322 10 340 9.7 12.9 0.00 0.00 0.00 38 1013.0
20260507003819 10 29 8.0 9.7 0.00 0.00 0.00 38 1012.9
20260507003314 10 4 6.4 8.0 0.00 0.00 0.00 38 1013.1
20260507002809 10 349 9.7 12.9 0.00 0.00 0.00 37 1012.6
20260507002306 10 288 8.0 8.0 0.00 0.00 0.00 37 1012.9
20260507001757 10 355 9.7 12.9 0.00 0.00 0.00 37 1012.5
20260507001255 11 321 6.4 9.7 0.00 0.00 0.00 36 1012.9
20260507000751 10 319 11.3 12.9 0.00 0.00 0.00 37 1013.2
20260507000246 11 344 14.5 17.7 0.00 0.00 0.00 37 1013.2
20260506235743 10 300 6.4 8.0 0.00 0.00 0.00 38 1013.1
20260506235239 9 297 8.0 9.7 0.00 0.00 0.00 39 1013.1
20260506234736 10 344 4.8 8.0 0.00 0.00 0.00 39 1013.1
20260506234233 10 316 9.7 12.9 0.00 0.00 0.00 37 1013.2
20260506233731 10 331 12.9 14.5 0.00 0.00 0.00 38 1013.3
20260506233227 10 7 16.1 20.9 0.00 0.00 0.00 36 1013.3
20260506232724 10 335 8.0 9.7 0.00 0.00 0.00 39 1013.5
20260506232218 10 319 9.7 11.3 0.00 0.00 0.00 38 1013.3
20260506231716 10 288 9.7 12.9 0.00 0.00 0.00 39 1013.5
20260506231214 10 299 11.3 12.9 0.00 0.00 0.00 39 1013.4
20260506230710 10 330 8.0 11.3 0.00 0.00 0.00 41 1013.5
20260506230208 10 303 9.7 12.9 0.00 0.00 0.00 39 1013.5
20260506225704 10 305 12.9 14.5 0.00 0.00 0.00 38 1013.4
20260506225201 10 335 17.7 17.7 0.00 0.00 0.00 36 1013.8
20260506224657 10 320 6.4 8.0 0.00 0.00 0.00 40 1013.6
20260506224155 10 296 11.3 11.3 0.00 0.00 0.00 38 1013.6
20260506223651 11 272 12.9 14.5 0.00 0.00 0.00 38 1013.7
20260506223146 11 357 3.2 3.2 0.00 0.00 0.00 36 1013.7
20260506222644 10 22 11.3 14.5 0.00 0.00 0.00 39 1013.6
20260506222139 10 287 8.0 9.7 0.00 0.00 0.00 39 1013.6
20260506221638 11 301 16.1 20.9 0.00 0.00 0.00 38 1013.8
20260506221136 10 310 8.0 9.7 0.00 0.00 0.00 40 1013.7
20260506220632 10 308 8.0 11.3 0.00 0.00 0.00 41 1014.2
20260506220127 10 326 16.1 17.7 0.00 0.00 0.00 41 1013.9
20260506215624 11 254 12.9 17.7 0.00 0.00 0.00 39 1014.0
20260506215119 10 337 9.7 11.3 0.00 0.00 0.00 38 1014.1
20260506214616 9 338 6.4 8.0 0.00 0.00 0.00 42 1014.2
20260506214114 11 326 11.3 16.1 0.00 0.00 0.00 41 1014.3
20260506213612 10 305 3.2 3.2 0.00 0.00 0.00 45 1014.0
20260506213109 10 289 11.3 12.9 0.00 0.00 0.00 42 1014.3
20260506212606 9 292 11.3 12.9 0.00 0.00 0.00 43 1014.3
20260506212101 10 295 12.9 12.9 0.00 0.00 0.00 42 1014.4
20260506211556 9 297 11.3 12.9 0.00 0.00 0.00 44 1014.8
20260506211048 10 285 11.3 16.1 0.00 0.00 0.00 42 1014.5
20260506210545 8 298 16.1 20.9 0.00 0.00 0.00 42 1014.6
20260506210041 9 328 11.3 12.9 0.00 0.00 0.00 44 1014.8
20260506205538 9 289 11.3 12.9 0.00 0.00 0.00 43 1014.9
20260506205033 8 267 14.5 20.9 0.00 0.00 0.00 44 1014.9
20260506204532 8 300 12.9 14.5 0.00 0.00 0.00 45 1014.9
20260506204028 8 309 8.0 9.7 0.00 0.00 0.00 43 1015.1
20260506203527 9 291 12.9 14.5 0.00 0.00 0.00 42 1015.0
20260506203023 10 313 11.3 17.7 0.00 0.00 0.00 43 1015.3
20260506202520 11 296 6.4 11.3 0.00 0.00 0.00 42 1015.3
20260506202016 10 314 9.7 14.5 0.00 0.00 0.00 43 1015.4
20260506201515 9 293 11.3 14.5 0.00 0.00 0.00 45 1015.4
20260506201011 8 312 11.3 12.9 0.00 0.00 0.00 46 1015.4
20260506200507 8 327 3.2 3.2 0.00 0.00 0.00 44 1015.3
20260506200004 8 252 9.7 11.3 0.00 0.00 0.00 46 1015.4
20260506195500 8 329 9.7 12.9 0.00 0.00 0.00 47 1015.5
20260506194956 7 346 11.3 12.9 0.00 0.00 0.00 47 1015.8
20260506194454 8 295 8.0 9.7 0.00 0.00 0.00 46 1015.5
20260506193945 8 319 6.4 9.7 0.00 0.00 0.00 47 1015.9
20260506193442 8 358 9.7 11.3 0.00 0.00 0.00 46 1015.6
20260506192939 8 335 8.0 11.3 0.00 0.00 0.00 51 1016.1
20260506192436 8 108 3.2 3.2 0.00 0.00 0.00 47 1015.9
20260506191932 7 300 12.9 16.1 0.00 0.00 0.00 47 1015.9
20260506191429 8 275 9.7 12.9 0.00 0.00 0.00 48 1016.1
20260506190926 7 357 4.8 4.8 0.00 0.00 0.00 48 1016.1
20260506190422 7 351 11.3 14.5 0.00 0.00 0.00 47 1016.2
20260506185919 8 310 9.7 14.5 0.00 0.00 0.00 49 1016.2
20260506185417 8 347 12.9 17.7 0.00 0.00 0.00 50 1016.1
20260506184914 8 293 8.0 9.7 0.00 0.00 0.00 50 1016.3
20260506184410 6 23 8.0 11.3 0.00 0.00 0.00 49 1016.4
20260506183908 7 342 6.4 9.7 0.00 0.00 0.00 49 1016.7
20260506183403 7 352 14.5 20.9 0.00 0.00 0.00 50 1016.7
20260506182900 7 316 12.9 17.7 0.00 0.00 0.00 49 1016.9
20260506182357 7 281 9.7 12.9 0.00 0.00 0.00 52 1016.8
20260506181854 7 296 8.0 11.3 0.00 0.00 0.00 50 1016.9
20260506181353 7 315 6.4 9.7 0.00 0.00 0.00 56 1016.9
20260506180849 6 333 3.2 3.2 0.00 0.00 0.00 50 1017.1
20260506180345 6 301 11.3 12.9 0.00 0.00 0.00 50 1017.1
20260506175843 7 303 3.2 3.2 0.00 0.00 0.00 49 1017.2
20260506175339 6 291 11.3 12.9 0.00 0.00 0.00 49 1017.2
20260506174836 7 305 11.3 11.3 0.00 0.00 0.00 49 1017.1
20260506174333 6 259 6.4 8.0 0.00 0.00 0.00 50 1017.2
20260506173831 6 272 6.4 8.0 0.00 0.00 0.00 50 1017.4
20260506173327 6 346 4.8 4.8 0.00 0.00 0.00 51 1017.3
20260506172825 6 348 6.4 8.0 0.00 0.00 0.00 50 1017.5
20260506172321 6 269 8.0 9.7 0.00 0.00 0.00 52 1017.7
20260506171819 6 283 17.7 17.7 0.00 0.00 0.00 50 1017.6
20260506171316 6 290 9.7 11.3 0.00 0.00 0.00 49 1017.7
20260506170813 6 345 14.5 16.1 0.00 0.00 0.00 51 1017.6
20260506170309 5 333 11.3 12.9 0.00 0.00 0.00 51 1017.7
20260506165808 5 336 4.8 4.8 0.00 0.00 0.00 50 1017.9
20260506165306 5 328 9.7 11.3 0.00 0.00 0.00 51 1017.7
20260506164802 5 345 11.3 12.9 0.00 0.00 0.00 51 1017.9
20260506164259 5 303 6.4 8.0 0.00 0.00 0.00 51 1018.0
20260506163755 5 359 12.9 16.1 0.00 0.00 0.00 52 1017.9
20260506163250 5 295 8.0 9.7 0.00 0.00 0.00 51 1018.0
20260506162746 5 298 8.0 9.7 0.00 0.00 0.00 52 1018.0
20260506162244 5 250 6.4 8.0 0.00 0.00 0.00 52 1018.2
20260506161742 5 348 6.4 8.0 0.00 0.00 0.00 55 1018.1
20260506161239 5 12 4.8 4.8 0.00 0.00 0.00 54 1018.2
20260506160736 5 293 8.0 11.3 0.00 0.00 0.00 53 1018.1
20260506160233 4 307 11.3 12.9 0.00 0.00 0.00 54 1018.1
20260506155731 5 348 4.8 4.8 0.00 0.00 0.00 53 1018.1
20260506155228 5 306 9.7 11.3 0.00 0.00 0.00 54 1018.3
20260506153335 3 310 8.0 9.7 0.00 0.00 0.00 53 1018.2
20260506152832 5 273 8.0 9.7 0.00 0.00 0.00 53 1018.1
20260506152329 5 197 1.6 1.6 0.00 0.00 0.00 54 1018.2
20260506151828 5 16 4.8 8.0 0.00 0.00 0.00 54 1018.2
20260506151324 3 324 4.8 8.0 0.00 0.00 0.00 55 1018.5
20260506150821 3 252 4.8 4.8 0.00 0.00 0.00 54 1018.3
20260506150318 4 354 3.2 4.8 0.00 0.00 0.00 54 1018.5
20260506145815 3 298 4.8 4.8 0.00 0.00 0.00 54 1018.3
20260506145311 4 245 6.4 8.0 0.00 0.00 0.00 57 1018.3
20260506144809 4 321 6.4 8.0 0.00 0.00 0.00 57 1018.6
20260506144305 3 190 6.4 8.0 0.00 0.00 0.00 58 1018.9
20260506143804 2 327 4.8 4.8 0.00 0.00 0.00 59 1018.6
20260506143300 2 213 4.8 4.8 0.00 0.00 0.00 60 1018.6
20260506142759 2 281 4.8 4.8 0.00 0.00 0.00 61 1018.8
20260506142256 2 223 4.8 4.8 0.00 0.00 0.00 62 1018.6
20260506141755 2 241 6.4 8.0 0.00 0.00 0.00 61 1018.6
20260506141253 2 238 4.8 4.8 0.00 0.00 0.00 64 1018.7
20260506140750 2 222 4.8 4.8 0.00 0.00 0.00 67 1018.7
20260506140247 1 188 4.8 4.8 0.00 0.00 0.00 67 1018.3
20260506135744 1 200 1.6 3.2 0.00 0.00 0.00 69 1018.3
20260506135240 1 212 3.2 3.2 0.00 0.00 0.00 68 1018.7
20260506134736 1 186 1.6 1.6 0.00 0.00 0.00 70 1018.7
20260506134233 0 34 1.6 1.6 0.00 0.00 0.00 72 1018.5
20260506133731 0 335 3.2 3.2 0.00 0.00 0.00 73 1018.5
20260506133227 0 212 3.2 3.2 0.00 0.00 0.00 74 1018.7
20260506132724 0 174 1.6 1.6 0.00 0.00 0.00 76 1018.6
20260506132221 0 224 3.2 3.2 0.00 0.00 0.00 76 1018.6
20260506131719 0 211 1.6 3.2 0.00 0.00 0.00 77 1018.6
20260506131215 0 164 1.6 1.6 0.00 0.00 0.00 78 1018.6
20260506130712 0 211 1.6 3.2 0.00 0.00 0.00 79 1018.6
20260506130209 -1 231 1.6 1.6 0.00 0.00 0.00 80 1018.7
20260506125706 -1 164 0.0 0.0 0.00 0.00 0.00 80 1018.3
20260506125204 -1 229 1.6 1.6 0.00 0.00 0.00 80 1018.6
20260506124702 -1 227 1.6 1.6 0.00 0.00 0.00 78 1018.3
20260506124200 -1 19 1.6 1.6 0.00 0.00 0.00 76 1018.5
20260506123657 -1 54 0.0 0.0 0.00 0.00 0.00 76 1018.1
20260506123156 -1 53 0.0 0.0 0.00 0.00 0.00 77 1018.1
20260506122652 -1 54 0.0 0.0 0.00 0.00 0.00 77 1018.1
20260506122150 -2 53 0.0 1.6 0.00 0.00 0.00 77 1018.1
20260506121647 -2 53 0.0 1.6 0.00 0.00 0.00 77 1018.2
20260506121143 -2 33 0.0 0.0 0.00 0.00 0.00 77 1018.0
20260506120642 -2 27 1.6 1.6 0.00 0.00 0.00 76 1018.1
20260506120138 -2 16 1.6 1.6 0.00 0.00 0.00 76 1017.9
20260506115637 -2 15 1.6 1.6 0.00 0.00 0.00 76 1018.1